Location: Isles
(48.9125°N, 2.8272°E)
Time: 15:14:30
(UTC+00:00)

Lacrosse 5 rocket - Pass Details

Date: 03 February 2023
Orbit: 455 x 612 km, 57.0° (Epoch: 29 March)

Event Time Altitude Azimuth Distance (km) Brightness Sun altitude
Rises 19:29:29 0° 300° (WNW) 2,491 5.7 -26.5°
Reaches altitude 10° 19:31:42 10° 291° (WNW) 1,626 4.6 -26.9°
Enters shadow 19:34:11 30° 255° (WSW) 881 2.9 -27.3°
